Weather Roundup
Issued by NWS Chicago, IL

Home | Current Version | Previous Version | Graphics & Text | Print | Product List | Glossary On
Versions: 1 2 3 4 5 6 7 8 9 10 11 12 13 14 15 16 17 18 19 20 21 22 23 24 25 26 27 28 29 30 31 32 33 34 35 36 37 38 39 40 41 42 43 44 45 46 47 48 49 50
000
NZUS59 KLOT 170208
HRRLOT

CHICAGO AREA WEATHER ROUNDUP
NATIONAL WEATHER SERVICE CHICAGO/ROMEOVILLE IL
900 PM CDT WED AUG 16 2017

NOTE: "FAIR" INDICATES FEW OR NO CLOUDS BELOW 12,000 FEET WITH NO
SIGNIFICANT WEATHER AND/OR OBSTRUCTIONS TO VISIBILITY.

* THESE STATIONS ARE NOT UNDER NWS QUALITY CONTROL. THEY ALSO MAY NOT
  REPORT WEATHER SUCH AS PRECIPITATION OR FOG.

ILZ005-006-012>014-019>023-170300-
NORTHEAST ILLINOIS

CITY           SKY/WX    TMP DP  RH WIND       PRES   REMARKS
OHARE          LGT RAIN  78  73  84 SE9       29.88R HX  81
MIDWAY         CLOUDY    81  73  76 S8        29.88R HX  86
AURORA         CLOUDY    77  74  90 SE6       29.88R
LANSING*       CLOUDY    79  70  74 S6        29.90R HX  81
JOLIET*        CLOUDY    78  75  90 S3        29.88R HX  81
WAUKEGAN       LGT RAIN  73  73 100 SE3       29.87S FOG
DUPAGE AIRPORT CLOUDY    76  75  97 SE8       29.87S FOG
WHEELING       CLOUDY    76  75  97 SE5       29.89S
MORRIS*        CLOUDY    77  73  88 SE7       29.86S
LEWIS AIRPORT* CLOUDY    76  71  84 S8        29.88S
NORTHERLY ISL    N/A     75  71  87 CALM        N/A
$$

WIZ051-052-058>065-066-070>072-170300-
SOUTHEAST WISCONSIN

CITY           SKY/WX    TMP DP  RH WIND       PRES   REMARKS
MILWAUKEE      LGT RAIN  73  71  93 E7        29.88S
KENOSHA*       CLOUDY    73  71  93 E8        29.88S
RACINE*        LGT RAIN  74  72  93 SE6       29.90S FOG
WAUKESHA       LGT RAIN  68  66  94 E9        29.89F
WEST BEND      RAIN      66  64  94 E3        29.89S
$$

INZ001>003-010>013-019-020-170300-
NORTHWEST INDIANA

CITY           SKY/WX    TMP DP  RH WIND       PRES   REMARKS
GARY*          CLOUDY    81  72  74 SE5       29.90R HX  84
MICHIGAN CITY* NOT AVBL
RENSSELAER*    NOT AVBL
VALPARAISO     CLOUDY    80  72  76 S5        29.92R HX  84
$$

LMZ740>746-170300-
SOUTHERN LAKE MICHIGAN

STATION/POSITION TIME  SKY/WX   TEMP WIND        PRES    VSBY
                                AIR  DIR/SP/G
                 (UTC)          (F)  (DEG/KT/KT) (MB)    (MI)
HARRISON CRIB    0100            77  130/  5/  5   N/A
BURNHAM HARBOR   NOT AVBL
CALUMET HARBOR   0142            81  160/  7/ 10 1011.5S
BURNS HARBOR     0103            83  180/  5/ 13 1012.5
MICHIGAN CITY    0140            81  150/  6/  9   N/A
$$

ABBREVIATIONS USED IN REMARKS
   TC - TEMPERATURE IN CELSIUS
  WCI - WIND CHILL INDEX
   HX - HEAT INDEX
  VSB - VISIBILITY
$$




USA.gov is the U.S. government's official web portal to all federal, state and local government web resources and services.